Content
SEND FEEDBACK

Daily
Averages
Monthly
Summary
United States of America

FOUR BUTTES, MONTANA


Home > North America > United States > Montana
Elevation: 1980 feet     Latitude: 48 05N     Longitude: 105 34W

WEATHER
 
SELECT A DAY
Number of Records: 17,660;   Date Range: 9/1/12 - 7/22/14
 
SHARE

PRINT THIS DATA

[ ← Previous Day ]
WEATHER ALMANAC - JANUARY 3, 2013
[ Next Day → ]
[ °C ]   °F
Weather ElementAverageHighLow
Temperature5.8 °F17.1 °F (12:53 pm)-2.9 °F (6:53 am)
Dewpoint0.9 °F9 °F (1:53 pm)-7.1 °F (6:53 am)
Humidity80.7 %92 % (3:36 am)68 % (12:53 pm)
Barometer30.24 in30.38 in (1:53 am)30.07 in (4:53 pm)
Wind Speed5.6 mph16.1 mph (1:53 pm)
Weather ElementAverage
Visibility9.2 mi
Wind DirectionSSE (163.5 °)

Weather ElementTotal
Precipitation---
Heating Degree Days57.9 (Base 65)
Averaged from 26 records on January 3, 2013
WEATHER CONDITIONS BREAKOUT
WIND DIRECTION BREAKOUT
WEATHER BY HOUR - JANUARY 3, 2013
[ °C ]   °F
Local TimeTemperatureDewpointHumidityBarometerVisibilityWind DirectionWind SpeedGust SpeedPrecipitationEventsConditions
1:53 AM5.0 °F1.9 °F87 %30.38 in9.0 miWSW (250°)5.8 mphClear
2:53 AM3.0 °F0.0 °F87 %30.38 in8.0 miWest (280°)3.5 mphClear
3:36 AM-0.4 °F-2.2 °F92 %30.23 in8.0 miWest (260°)4.6 mphPartly Cloudy
3:53 AM-0.9 °F-4.0 °F87 %30.35 in9.0 miWest (260°)4.6 mphPartly Cloudy
4:53 AM1.0 °F-2.9 °F83 %30.32 in9.0 miCalmPartly Cloudy
5:53 AM-0.9 °F-6.0 °F79 %30.32 in10.0 miCalmClear
6:53 AM-2.9 °F-7.1 °F82 %30.30 in10.0 miCalmScattered Clouds
7:11 AM-0.4 °F-5.8 °F78 %30.16 in1.8 miCalmScattered Clouds
7:23 AM-2.2 °F-5.8 °F85 %30.15 in4.0 miCalmPartly Cloudy
7:53 AM-2.9 °F-7.1 °F82 %30.28 in10.0 miCalmClear
8:53 AM-0.9 °F-5.1 °F83 %30.25 in10.0 miCalmClear
9:53 AM5.0 °F3.0 °F92 %30.24 in10.0 miCalmClear
10:53 AM10.0 °F7.0 °F87 %30.23 in10.0 miCalmClear
11:53 AM12.9 °F7.0 °F77 %30.21 in10.0 miWSW (250°)3.5 mphClear
12:53 PM17.1 °F8.1 °F68 %30.18 in10.0 miWSW (250°)11.5 mphClear
1:53 PM17.1 °F9.0 °F71 %30.17 in10.0 miWSW (250°)16.1 mphClear
2:53 PM17.1 °F8.1 °F68 %30.18 in10.0 miWSW (250°)11.5 mphClear
3:53 PM14.0 °F7.0 °F74 %30.20 in10.0 miWSW (240°)8.1 mphClear
4:53 PM12.2 °F5.0 °F73 %30.07 in10.0 miWSW (250°)9.2 mphClear
5:53 PM10.9 °F3.9 °F73 %30.22 in10.0 miSW (230°)11.5 mphClear
6:53 PM9.0 °F3.0 °F77 %30.24 in10.0 miWSW (250°)6.9 mphClear
7:53 PM8.1 °F3.0 °F80 %30.24 in10.0 miWSW (250°)9.2 mphClear
8:53 PM7.0 °F1.9 °F80 %30.24 in10.0 miWSW (250°)10.4 mphClear
9:53 PM5.0 °F1.0 °F84 %30.23 in10.0 miWSW (250°)9.2 mphClear
10:53 PM3.9 °F0.0 °F84 %30.22 in10.0 miWSW (240°)10.4 mphClear
11:53 PM3.9 °F0.0 °F84 %30.22 in10.0 miWSW (240°)9.2 mphClear
Hourly data recorded from KOLF, located miles away from Four Buttes, Montana







STORIES FROM OUR PARTNERS